Regional Weather Roundup
Issued by NWS Mobile, AL

Home | Current Version | Previous Version | Text Only | Print | Product List | Glossary On
Versions: 1 2 3 4 5 6 7 8 9 10 11 12 13 14 15 16 17 18 19 20 21 22 23 24 25 26 27 28 29 30 31 32 33 34 35 36 37 38 39 40 41 42 43 44 45 46 47 48 49 50
000
ASUS44 KMOB 261312
RWRMOB
REGIONAL WEATHER ROUNDUP
NATIONAL WEATHER SERVICE MOBILE AL
800 AM CDT SUN MAR 26 2017

NOTE: "FAIR" INDICATES FEW OR NO CLOUDS BELOW 12,000 FEET WITH NO
      SIGNIFICANT WEATHER AND/OR OBSTRUCTIONS TO VISIBILITY.

  * THESE STATIONS ARE PART OF THE UNIVERSITY OF SOUTH ALABAMA
    MESONET AND ARE NOT UNDER NWS OR FAA QUALITY CONTROL.

ALZ061>064-261400-
COASTAL ALABAMA

CITY           SKY/WX    TMP DP  RH WIND       PRES   REMARKS
MOBILE REG APT PTSUNNY   67  65  93 SE7       30.06R
BROOKLEY FIELD PTSUNNY   70  67  90 S7        30.07R
USA CAMPUS*      N/A     66  64  94 CALM      30.06R
DOG RIVER*       N/A     68  66  94 SE5       30.83


CITY           SKY/WX    TMP DP  RH WIND       PRES   REMARKS
GULF SHORES    CLOUDY    68  68 100 SE7       30.05R

$$

ALZ051>060-261400-
INTERIOR SOUTHWEST AND SOUTH CENTRAL ALABAMA

CITY           SKY/WX    TMP DP  RH WIND       PRES   REMARKS
GREENVILLE     CLOUDY    62  59  90 S6        30.08R
EVERGREEN      CLOUDY    64  62  93 S5        30.08R
ATMORE*          N/A    N/A N/A N/A S3        30.09R
ANDALUSIA/OPP  FOG       64  61  90 SE6       30.09R VSB 3/4
ANDALUSIA*     NOT AVBL
FLORALA APT    LGT RAIN  61  59  93 SE7       30.11R VSB 3/4
FLORALA*       NOT AVBL

$$

FLZ001>006-261400-
WESTERN FLORIDA PANHANDLE

CITY           SKY/WX    TMP DP  RH WIND       PRES   REMARKS
PENSACOLA      MOSUNNY   70  65  84 SE5       30.06R
NAS PENSACOLA  SUNNY     70  65  84 S3        30.06R
MILTON         NOT AVBL
WHTNG S FIELD  NOT AVBL


CITY           SKY/WX    TMP DP  RH WIND       PRES   REMARKS
JAY*             N/A     64  64 100 SE5       30.08R
DUKE FIELD     PTSUNNY   64  64 100 SE8       30.07R
CRESTVIEW      FOG       60  59  96 E5        30.10R VSB 1
VALPARAISO     PTSUNNY   67  65  95 SE9       30.08R
DESTIN         CLOUDY    70  69  97 SE10      30.08R

$$

MSZ076-079-261400-
INTERIOR SOUTHEAST MISSISSIPPI

CITY           SKY/WX    TMP DP  RH WIND       PRES   REMARKS
LEAKESVILLE*     N/A     63  63 100 SE3       30.04
AGRICOLA*        N/A     64  64 100 CALM      30.04

$$

MARINE OBSERVATIONS

STATION/POSITION TIME  TEMP    WIND        PRES    WAVE
                       AIR SEA DIR/SP/G            HT/PER
                 (UTC) (F)     (DEG/KT/KT) (MB)    (FT/S)
PASCAGOULA       1236   70     160/ 10/ 12 1017.0R
PETIT BOIS ISLND 1236   69     160/  6/  9 1017.8R
GRAND BAY        1130   70     180/  9     1017.0S
KATRINA CUT      1230          160/  9     1016.9R
CEDAR POINT      1230   70     170/ 10     1017.3R
E DAUPHIN ISLAND 1200   69     150/ 12/ 14 1016.5R
MIDDLE BAY LIGHT 1230   69     160/ 13     1017.6R
USCG MOBILE BAY  1236   68 70  150/  4/  8 1018.2R
STATE DOCKS      1236   66 65              1017.5R
MEAHER PARK      1230   64     110/  2     1017.6R
WEEKS BAY        1145   62                   N/A
FORT MORGAN      1236   69     170/ 13/ 14   N/A
12 S ORANGE BCH  1150   69 69  170/  8/ 10 1016.9R   4/ 6
PENSACOLA BAY    1236   68 69   CALM  /  1 1018.0R
64 S DAUPHIN ISL 1250   72 73  170/ 10/ 14 1017.1R   4/ 7
67 S FORT MORGAN 1230   71     180/ 12     1016.9S

$$

SELECTED LOCATIONS ACROSS THE REGION

CITY           SKY/WX    TMP DP  RH WIND       PRES   REMARKS
NEW ORLEANS    CLOUDY    69  67  93 VRB3      30.02R FOG
GULFPORT       CLOUDY    71  68  90 S5        30.03R
PASCAGOULA AP  PTSUNNY   65  62  90 CALM      30.04R
PASCAGOULA*    NOT AVBL
HATTIESBURG    CLOUDY    60  59  96 CALM      30.05R
LAUREL         CLOUDY    61  57  88 SE6       30.05R
MERIDIAN       CLOUDY    63  63 100 S7        30.04R FOG
JACKSON        CLOUDY    64  61  90 S8        29.99R
MONTGOMERY     CLOUDY    63  58  83 S8        30.09R
TROY           CLOUDY    62  62 100 SE5       30.11R
ASHFORD*       NOT AVBL
DOTHAN         SUNNY     63  63 100 SE6       30.13R
PANAMA CITY    CLOUDY    66  64  93 E5        30.09R

$$




USA.gov is the U.S. government's official web portal to all federal, state and local government web resources and services.